CZ-6A DEB, 60704

Orbit data source: Space-Track

CZ-6A DEB, 60704 is space debris in LEO originally from a launch on Tue, 06 Aug 2024 UTC launched from the Taiyaun Space Center, China (TSC). Debris objects in space refer to the collection of defunct objects orbiting the Earth. Examples of debris include non-operational satellites, rocket bodies, and fragments generated from explosions, collisions, or faulty payload assembly.

Loading next visibility...
Identifier
60704, 2024-140DH
Orbit
LEO
Country
Flag of CNCN / PRC
Related business
Manufacturer
SAST
Mission
Spacecraft
Bus & Motor
Unknown
Mass
Unknown
Launch date (UTC)
2024-08-06 (2 years ago)
Launch vehicle
Unknown
Launch site
Taiyaun Space Center, China (TSC)
Object type
Payload
Rocket body
Debris
Shape & HBR
Unknown shape, 0.1 m
Radar Cross Section
Medium (>0.1 m² and <1 m²)

Expand to show TLE details & history
Last TLE update: 13 hours ago

TLE from 13 hours ago
0 CZ-6A DEB
1 60704U 24140DH  26171.29497757  .00014474  00000-0  12507-2 0  9992
2 60704  89.1490 279.8899 0110398 148.5087 212.2816 14.92465527100083
Epoch: 2026-06-20T07:04Z
TLE epoch observation values (Epoch: 2026-06-20T07:04:46.062Z)
Latitude
-0.00001°
Longitude
-94.81368°
Altitude
658.701 km
Speed
7.493 km/s
True Right ascension
18h 39m 33s
True Declination
0° 00' 00"
Sunlit
Object was in full shadow at epoch
Visualization orbit readout
Latitude
Unknown
Longitude
Unknown
Altitude
Unknown
Speed
Unknown
Apparent Right ascension
Unknown
Apparent Declination
Unknown
Sunlit
N/A
Visualization observer readout
Local Sidereal Time
07:14:56
Azimuth
Unknown
Elevation
Unknown
Doppler factor
Unknown
Orbital elements
Apogee altitude
663.992 km
Perigee altitude
510.203 km
Semi-major axis
6,965.234 km
Eccentricity
0.01104
Inclination
89.149°
RAAN
279.8899°
Arg. of periapsis
148.5087°
True anomaly
211.61376°
Mean anomaly
212.2816°
Eccentric anomaly
211.94691°
Mean motion
3.7337 °/min
Orbital period
96.42 mins
BSTAR
0.0012507
Loading maneuver chart data...
Computing Atmospheric mass density...
Loading historical data...
Loading historical data...
Loading historical data...
Loading historical data...
Loading historical data...
Loading historical data...
Loading historical data...

Documentation

Showing up to 5 results
|